Regional Weather Roundup
Issued by NWS

Home | Current Version | Previous Version | Text Only | Print | Product List | Glossary On
Versions: 1 2 3 4 5 6 7 8 9 10 11 12 13 14 15 16 17 18 19 20 21 22 23 24 25 26 27 28 29 30 31 32 33 34 35 36 37 38 39 40 41 42 43 44 45 46 47 48 49 50
000
ASUS45 KCYS 270710
RWRWY

WYOMING REGIONAL WEATHER ROUNDUP
NATIONAL WEATHER SERVICE CHEYENNE WY
100 AM MDT MON MAR 27 2017

NOTE:  "FAIR" INDICATES FEW OR NO CLOUDS BELOW 12,000 FEET
WITH NO SIGNIFICANT WEATHER AND/OR OBSTRUCTIONS TO VISIBILITY.

WYZ001-270800-
YELLOWSTONE NATIONAL PARK

CITY           SKY/WX    TMP DP  RH WIND       PRES   REMARKS
LK YELLOWSTONE   N/A     27  27 100 CALM      29.92F
W YELLOWSTONE  NOT AVBL

$$
WYZ002>013-054>058-071-098>099-270800-
NORTHERN WYOMING

CITY           SKY/WX    TMP DP  RH WIND       PRES   REMARKS
JACKSON        CLOUDY    34  32  93 SW7       29.94S WCI  28
CODY           CLOUDY    46  22  38 W7        29.86S
GREYBULL       CLOUDY    47  31  53 CALM      29.81F
WORLAND        FAIR      43  36  76 CALM      29.81S
SHERIDAN       FAIR      42  32  67 NE3       29.82F
BUFFALO        FAIR      41  31  67 SE7       29.85F
GILLETTE       FAIR      40  34  79 S10       29.88F WCI  33
HULETT         FAIR      34  30  86 CALM      29.90F
NEWCASTLE      CLOUDY    32  32 100 E10       29.94F FOG     WCI  24

$$
WYZ014>020-022>026-101>103-270800-
CENTRAL WYOMING

CITY           SKY/WX    TMP DP  RH WIND       PRES   REMARKS
BIG PINEY      CLOUDY    30  25  81 N3        29.96S
PINEDALE       CLOUDY    28  23  80 CALM      29.97S
DUBOIS         CLOUDY    32  23  69 NW12      29.89F WCI  23
LANDER         MOCLDY    41  24  51 CALM      29.86F
RIVERTON       CLOUDY    41  24  51 NW12      29.86F
CASPER         FAIR      38  32  79 CALM      29.88F
DOUGLAS        FAIR      38  34  85 SE10      29.91F WCI  31

$$
WYZ021-027>030-104>119-270800-
SOUTHERN WYOMING

CITY           SKY/WX    TMP DP  RH WIND       PRES   REMARKS
EVANSTON       CLOUDY    35  24  64 SW8       29.95F WCI  29
KEMMERER         N/A     32  27  80 CALM      29.96F
FORT BRIDGER   CLOUDY    35  27  72 S3        29.99F
ROCK SPRINGS   CLOUDY    36  26  67 SW8       29.97F WCI  30
DIXON            N/A     34  27  75 CALM      30.00S
RAWLINS        FAIR      34  22  61 SW9       29.96S WCI  27
SARATOGA       CLOUDY    30  23  74 W6        29.97R WCI  24
LARAMIE        FAIR      29  28  96 S8        29.95S WCI  21
CHEYENNE       FAIR      34  31  88 SW6       29.96F WCI  29
TORRINGTON     FAIR      32  30  92 CALM      29.93F
PINE BLUFFS    FAIR      27  27 100 SW7       29.97F WCI  19

$$



USA.gov is the U.S. government's official web portal to all federal, state and local government web resources and services.